Weather History for LEMG - March, 2013

Change the Weather History Date:

Saturday, March 16, 2013

  Actual Average Record
Temperature  
Mean Temperature 52 °F -  
Max Temperature 57 °F 67 °F 77 °F (2008)
Min Temperature 46 °F 50 °F 41 °F (2011)
Degree Days  
Heating Degree Days 14    
Growing Degree Days 2 (Base 50)    
Moisture  
Dew Point 43 °F    
Average Humidity 75    
Maximum Humidity 93    
Minimum Humidity 51    
Precipitation  
Precipitation 0.08 in 0.06 in - ()
Sea Level Pressure  
Sea Level Pressure 29.95 in    
Wind  
Wind Speed 4 mph ()    
Max Wind Speed 10 mph    
Max Gust Speed -    
Visibility 6.4 miles    
Events Rain    
Averages and records for this station are not official NWS values.
T = Trace of Precipitation, MM = Missing Value Source: Averaged Metar Reports

Daily Weather History Graph

Daily Weather History Graph

Search for Another Location

Airport or City:

Trip Planner

Search our weather history database for the weather conditions in past years. The results will help you decide how hot, cold, wet, or windy it might be!

Date:

Astronomy

Mar. 16, 2013 Rise Set
Actual Time 7:27 AM CET 7:26 PM CET
Civil Twilight 7:01 AM CET 7:52 PM CET
Nautical Twilight 6:31 AM CET 8:22 PM CET
Astronomical Twilight 6:01 AM CET 8:52 PM CET
Moon 9:55 AM CET (3/16) No Moon Set
Length of Visible Light 12h 50m
Length of Day
11h 58m
Waxing Crescent, 21% of the Moon is Illuminated
Mar 16
Waxing Crescent
Mar 19
First Quarter
Mar 27
Full
Apr 3
Last Quarter
Apr 10
New

Hourly Weather History & Observations

Time (CET) Temp. Windchill Dew Point Humidity Pressure Visibility Wind Dir Wind Speed Gust Speed Precip Events Conditions
12:00 AM 46.4 °F - 39.2 °F 76% 30.04 in 6.2 mi NW 1.2 mph - N/A   Partly Cloudy
12:30 AM 46.4 °F - 39.2 °F 76% 30.04 in 6.2 mi WNW 2.3 mph - N/A   Partly Cloudy
1:00 AM 46.4 °F 43.5 °F 39.2 °F 76% 30.04 in 6.2 mi WNW 5.8 mph - N/A   Partly Cloudy
1:30 AM 46.4 °F 45.2 °F 39.2 °F 76% 30.01 in 6.2 mi WNW 3.5 mph - N/A   Partly Cloudy
2:00 AM 46.4 °F 42.9 °F 39.2 °F 76% 30.01 in 6.2 mi WNW 6.9 mph - N/A   Partly Cloudy
2:30 AM 48.2 °F - 39.2 °F 71% 30.01 in 6.2 mi West 3.5 mph - N/A   Partly Cloudy
3:00 AM 48.2 °F - 41.0 °F 76% 30.01 in 6.2 mi NW 3.5 mph - N/A   Partly Cloudy
3:30 AM 46.4 °F 43.5 °F 41.0 °F 81% 30.01 in 6.2 mi NW 5.8 mph - N/A   Partly Cloudy
4:00 AM 46.4 °F 43.5 °F 41.0 °F 81% 29.98 in 6.2 mi WNW 5.8 mph - N/A   Partly Cloudy
4:30 AM 48.2 °F - 41.0 °F 76% 29.98 in 6.2 mi WNW 5.8 mph - N/A   Partly Cloudy
5:00 AM 48.2 °F - 41.0 °F 76% 29.95 in 6.2 mi WNW 5.8 mph - N/A   Partly Cloudy
5:30 AM 46.4 °F 41.9 °F 41.0 °F 81% 29.95 in 6.2 mi WNW 9.2 mph - N/A   Partly Cloudy
6:00 AM 46.4 °F 42.4 °F 41.0 °F 81% 29.98 in 6.2 mi WNW 8.1 mph - N/A   Partly Cloudy
6:30 AM 46.4 °F 45.2 °F 41.0 °F 81% 29.95 in 6.2 mi NW 3.5 mph - N/A   Partly Cloudy
7:00 AM 48 °F - 41 °F 69% 29.96 in 12 mi West 6.9 mph - -   Scattered Clouds
7:00 AM 46.4 °F 42.9 °F 41.0 °F 81% 29.95 in 6.2 mi West 6.9 mph - N/A   Partly Cloudy
7:30 AM 46.4 °F 42.9 °F 41.0 °F 81% 29.95 in 6.2 mi West 6.9 mph - N/A   Partly Cloudy
8:00 AM 46.4 °F 44.3 °F 41.0 °F 81% 29.95 in 6.2 mi WNW 4.6 mph - N/A   Partly Cloudy
8:30 AM 46.4 °F 42.9 °F 42.8 °F 87% 29.95 in 6.2 mi WNW 6.9 mph - N/A   Partly Cloudy
9:00 AM 48.2 °F - 42.8 °F 82% 29.98 in 6.2 mi WNW 9.2 mph - N/A   Partly Cloudy
9:30 AM 50.0 °F - 42.8 °F 76% 29.95 in 6.2 mi WNW 3.5 mph - N/A   Partly Cloudy
10:30 AM 53.6 °F - 44.6 °F 72% 29.95 in 6.2 mi West 3.5 mph - N/A   Partly Cloudy
11:00 AM 55.4 °F - 44.6 °F 67% 29.98 in 6.2 mi West 6.9 mph - N/A   Partly Cloudy
11:30 AM 55.4 °F - 42.8 °F 63% 29.98 in 6.2 mi WNW 4.6 mph - N/A   Partly Cloudy
12:30 PM 55.4 °F - 44.6 °F 67% 29.98 in 6.2 mi Variable 1.2 mph - N/A Rain Light Rain
1:00 PM 57 °F - 46 °F 56% 29.98 in 12 mi SE 3.5 mph - - Rain Light Rain
1:00 PM 55.4 °F - 44.6 °F 67% 29.98 in 6.2 mi SE 3.5 mph - N/A Rain Light Rain
1:30 PM 57.2 °F - 42.8 °F 59% 29.95 in 6.2 mi ESE 4.6 mph - N/A   Scattered Clouds
2:00 PM 57.2 °F - 42.8 °F 59% 29.95 in 6.2 mi Variable 1.2 mph - N/A   Scattered Clouds
2:30 PM 57.2 °F - 44.6 °F 63% 29.95 in 6.2 mi Variable 1.2 mph - N/A   Scattered Clouds
3:00 PM 55.4 °F - 42.8 °F 63% 29.95 in 6.2 mi South 1.2 mph - N/A Rain Light Rain
3:30 PM 53.6 °F - 46.4 °F 77% 29.92 in 6.2 mi SSE 4.6 mph - N/A Rain Light Rain
4:00 PM 55.4 °F - 48.2 °F 77% 29.92 in 6.2 mi Variable 1.2 mph - N/A Rain Light Rain
4:30 PM 53.6 °F - 48.2 °F 82% 29.92 in 3.7 mi Variable 1.2 mph - N/A Rain Rain
5:00 PM 53.6 °F - 44.6 °F 72% 29.92 in 5.0 mi Calm Calm - N/A   Scattered Clouds
5:30 PM 53.6 °F - 42.8 °F 67% 29.89 in 6.2 mi Variable 1.2 mph - N/A   Scattered Clouds
6:00 PM 55.4 °F - 41.0 °F 58% 29.89 in 6.2 mi Calm Calm - N/A   Scattered Clouds
6:30 PM 55.4 °F - 42.8 °F 63% 29.89 in 6.2 mi Calm Calm - N/A   Partly Cloudy
7:00 PM 56 °F - 43 °F 51% 29.89 in 9 mi WNW 6.9 mph - -   Scattered Clouds
7:00 PM 51.8 °F - 46.4 °F 82% 29.89 in 6.2 mi WNW 6.9 mph - N/A   Partly Cloudy
7:30 PM 51.8 °F - 46.4 °F 82% 29.89 in 6.2 mi WNW 8.1 mph - N/A   Partly Cloudy
8:00 PM 50.0 °F - 46.4 °F 87% 29.89 in 6.2 mi WNW 3.5 mph - N/A   Partly Cloudy
8:30 PM 50.0 °F - 46.4 °F 87% 29.86 in 6.2 mi West 5.8 mph - N/A   Partly Cloudy
9:30 PM 51.8 °F - 46.4 °F 82% 29.86 in 6.2 mi West 8.1 mph - N/A   Partly Cloudy
10:00 PM 50.0 °F - 46.4 °F 87% 29.86 in 6.2 mi WNW 5.8 mph - N/A   Scattered Clouds
10:30 PM 48.2 °F - 46.4 °F 93% 29.86 in 6.2 mi WNW 8.1 mph - N/A   Partly Cloudy
11:00 PM 48.2 °F - 44.6 °F 87% 29.86 in 6.2 mi NW 4.6 mph - N/A   Partly Cloudy
11:30 PM 46.4 °F 41.5 °F 44.6 °F 93% 29.86 in 6.2 mi WNW 10.4 mph - N/A   Partly Cloudy